FENGYUN 1C DEB

Satellite information

Favourite Embed

Satellite Type and Status

DEBRISIN ORBIT

Key statistics

Satellite FENGYUN 1C DEB at a glance.

Uptime

9494

Days in orbit

Revolutions

≈ 14.2

Per day

Orbit

SSO

Sun Synchronous Orbit

Inclination

98.8

Latest

Satellite identification and parameters

Extended collection of information and parameters for FENGYUN 1C DEB.

Object identification

Identified? True

Debris? True

Object name: FENGYUN 1C DEB

International designator: 1999-025AFQ

Object number (NORAD): 30453

Object ID (CCSDS): 30453

Country: PEOPLES REPUBLIC OF CHINA (PRC)

Current information (Y/N): Y

RCS size: SMALL

Orbital parameters

Period: 101.181 minutes

Inclination: 98.8236 deg

SMA: 7192.71 km

Apoapsis: 900.788 km

Periapsis: 728.361 km

RAAN: 197.9264 deg

Eccentricy: 0.0119862

Argument of periapsis: 142.0142 deg

Mean anomaly: 268.6265 deg

Mean motion: 14.23193558 rev/day

Mean motion (dot): 0.00004287 rev/day2

B* drag term: 0.0017787 1/REarth

Two-line elements (TLE)

Creation date: May 7, 2025, 3:14 a.m.

Reference frame: TEME

Reference center: EARTH

Epoch: May 6, 2025, 10:16 p.m. UTC

TLE line 0: 0 FENGYUN 1C DEB

TLE line 1: 1 30453U 99025AFQ 25126.92791988 .00004287 00000-0 17787-2 0 9992

TLE line 2: 2 30453 98.8236 197.9264 0119862 142.0142 268.6265 14.23193558941068

Live tracking on map

Real-time ground track for satellite FENGYUN 1C DEB.

In-orbit conjunctions

A list of the most updated potential collisions computed for object FENGYUN 1C DEB.

Target Orbit TCA Probability of collision Miss distance Type
COSMOS 2251 DEB LEO 2025-03-18 01:33:42 0.0003976545 199.0 (m) DEBRIS
CZ-6A DEB SSO 2025-02-20 13:05:53 0.0001883308 199.0 (m) DEBRIS
CZ-6A DEB LEO 2025-02-19 08:26:33 0.000225616 629.0 (m) DEBRIS
CZ-6A DEB LEO 2025-02-15 01:26:16 0.0001723409 588.0 (m) DEBRIS
CZ-6A DEB SSO 2024-06-04 22:21:39 0.0001352708 331.0 (m) DEBRIS

Associated space launch

Chinese polar orbiting meteorological satellite

FENGYUN 1C DEB was lifted into orbit during the mission ‘Long March 4B | Feng Yun 1C’, on board a Long March 4B space rocket.

The launch took place on May 10, 1999, 1:33 a.m. from Launch Complex 7.

For more information about the launch, click the button.

Launch to space Long March 4B | Feng Yun 1C
Long March 4B | Feng Yun 1C

Agency: N/A

Status: Launch Successful

Launch date: May 10, 1999, 1:33 a.m. UTC

Rocket: Long March 4B

Launch pad: Launch Complex 7

Location: Taiyuan Satellite Launch Center, People's Republic of China

...

Latest news about this satellite

There are no fresh news available about this satellite. Check back as we update our databases every day.


Newsletter sign-up

Weekly statistics, charts and insights to help you stay on top of the space industry.